Regional Weather Roundup
Issued by NWS

Home | Current Version | Previous Version | Graphics & Text | Print | Product List | Glossary On
Versions: 1 2 3 4 5 6 7 8 9 10 11 12 13 14 15 16 17 18 19 20 21 22 23 24 25 26 27 28 29 30 31 32 33 34 35 36 37 38 39 40 41 42 43 44 45 46 47 48 49 50
000
ASUS45 KCYS 192310
RWRWY

WYOMING REGIONAL WEATHER ROUNDUP
NATIONAL WEATHER SERVICE CHEYENNE WY
500 PM MDT SUN APR 19 2015

NOTE:  "FAIR" INDICATES FEW OR NO CLOUDS BELOW 12,000 FEET
WITH NO SIGNIFICANT WEATHER AND/OR OBSTRUCTIONS TO VISIBILITY.

WYZ001-200000-
YELLOWSTONE NATIONAL PARK

CITY           SKY/WX    TMP DP  RH WIND       PRES   REMARKS
LK YELLOWSTONE   N/A     41  17  38 VRB6      30.08F
W YELLOWSTONE  NOT AVBL

$$
WYZ002>013-054>058-071-098>099-200000-
NORTHERN WYOMING

CITY           SKY/WX    TMP DP  RH WIND       PRES   REMARKS
JACKSON        CLOUDY    52  18  25 W16G22    30.01F
CODY           CLOUDY    46  19  34 N13G20    30.07F
GREYBULL       FAIR      53  15  22 N22G30    30.05F
WORLAND        FAIR      53  17  24 N13       30.04F
SHERIDAN       FAIR      50  19  29 N16G23    30.08F
BUFFALO          N/A     46  15  28 N25G41    30.06S
GILLETTE       PTSUNNY   48  14  25 N16G29    30.04S
HULETT         CLOUDY    45  18  33 N20G26    30.04F
NEWCASTLE      FAIR      48  14  25 NW25G36   30.02F

$$
WYZ014>020-022>026-101>103-200000-
CENTRAL WYOMING

CITY           SKY/WX    TMP DP  RH WIND       PRES   REMARKS
BIG PINEY      CLOUDY    55  20  25 W8        30.01F
PINEDALE       CLOUDY    50  16  25 NW16      30.01F
DUBOIS         CLOUDY    45  21  39 E7        30.02S
LANDER         CLOUDY    49  28  44 VRB7      30.02F
RIVERTON       CLOUDY    50  20  30 NE12      30.05F
CASPER         CLOUDY    46  20  35 NE8       30.05S
DOUGLAS        CLOUDY    46  20  35 N18       30.06F

$$
WYZ021-027>030-104>119-200000-
SOUTHERN WYOMING

CITY           SKY/WX    TMP DP  RH WIND       PRES   REMARKS
EVANSTON       FAIR      56  21  25 W13       30.03F
KEMMERER       MOCLDY    50  21  32 W16       30.03F
FORT BRIDGER   MOCLDY    52  30  43 NW15      30.06F
ROCK SPRINGS   CLOUDY    48  23  37 N7        30.03F
DIXON          CLOUDY    48  24  39 CALM      30.10F
RAWLINS        CLOUDY    44  24  45 N9        30.06F
SARATOGA       MIX PCPN  36  28  75 S3        30.09F
LARAMIE        FAIR      34  23  64 NW16      30.05F WCI  24
CHEYENNE       FAIR      41  21  44 NW20G29   30.05S
TORRINGTON     CLOUDY    50  18  28 N17G29    30.02F
PINE BLUFFS    FAIR      45  19  36 N28G35    30.03F

$$



USA.gov is the U.S. government's official web portal to all federal, state and local government web resources and services.